Temp
-15 -15 -15 -15 -15 -15 -14 -14 -14 -14 -14 -14 -14 -14 -14 -14 -14 -14 -14 -14 -14 -15 -15 -15 -15 -15 -16 -16 -16 -16 -16 -16 -16 -16 -16 -16 -17 -17 -17 -17 -17 -17 -17
-15 -15 -15 -15 -15 -15 -14 -14 -14 -14 -14 -14 -14 -15 -15 -15 -14 -14 -15 -15 -15 -15 -15 -16 -16 -16 -16 -17 -17 -17 -17 -17 -17 -17 -17 -17 -17 -17 -17 -18 -18 -18 -17
-15 -15 -15 -15 -15 -14 -14 -15 -15 -15 -15 -15 -15 -15 -15 -15 -15 -15 -15 -15 -15 -16 -16 -16 -16 -16 -16 -16 -17 -17 -17 -17 -17 -17 -17 -17 -17 -17 -17 -17 -18 -18 -18
-15 -15 -15 -15 -15 -15 -15 -15 -15 -15 -14 -15 -15 -15 -15 -15 -15 -16 -16 -16 -17 -17 -17 -17 -17 -17 -17 -17 -17 -17 -18 -18 -18 -18 -18 -18 -18 -18 -18 -18 -18 -18 -19
-15 -15 -15 -15 -15 -15 -15 -15 -15 -15 -15 -15 -15 -15 -15 -16 -16 -17 -17 -17 -18 -18 -18 -18 -18 -18 -18 -18 -18 -18 -18 -19 -19 -19 -19 -19 -19 -19 -18 -18 -18 -19 -19
-15 -15 -15 -15 -15 -15 -15 -15 -15 -16 -16 -16 -16 -15 -16 -17 -17 -17 -17 -17 -17 -18 -18 -18 -18 -18 -18 -19 -19 -19 -19 -19 -19 -19 -19 -20 -20 -20 -19 -19 -19 -19 -19
-15 -15 -15 -15 -15 -15 -15 -15 -16 -16 -16 -16 -16 -16 -17 -18 -18 -18 -18 -18 -18 -18 -18 -18 -19 -19 -19 -19 -19 -19 -19 -19 -20 -20 -20 -20 -20 -20 -20 -20 -20 -20 -19
-15 -15 -15 -16 -16 -16 -16 -16 -16 -16 -16 -16 -17 -17 -18 -17 -18 -18 -18 -18 -18 -18 -18 -19 -19 -19 -20 -20 -19 -20 -20 -21 -21 -21 -21 -21 -22 -22 -22 -21 -21 -21 -21
-16 -16 -16 -16 -16 -16 -16 -16 -15 -16 -17 -17 -17 -18 -18 -19 -18 -17 -18 -19 -19 -19 -19 -19 -19 -20 -20 -20 -20 -20 -21 -22 -22 -22 -22 -22 -22 -23 -23 -23 -23 -23 -22
-15 -15 -15 -16 -16 -16 -16 -15 -16 -17 -17 -17 -18 -18 -19 -19 -19 -19 -19 -19 -19 -20 -20 -20 -20 -20 -20 -21 -21 -21 -22 -22 -22 -23 -24 -25 -26 -27 -26 -26 -25 -25 -24
-15 -15 -15 -15 -16 -16 -16 -16 -17 -17 -17 -18 -18 -18 -19 -19 -19 -20 -20 -20 -20 -19 -20 -20 -20 -21 -22 -22 -22 -22 -22 -23 -24 -25 -27 -28 -28 -28 -28 -27 -27 -26 -26
-16 -16 -16 -16 -16 -16 -16 -17 -17 -17 -18 -18 -18 -19 -19 -20 -20 -20 -20 -20 -21 -21 -21 -21 -21 -22 -22 -22 -23 -23 -24 -25 -27 -29 -29 -29 -29 -29 -29 -29 -28 -28 -27
-16 -16 -16 -16 -17 -17 -17 -17 -17 -18 -18 -18 -18 -19 -20 -20 -20 -20 -20 -21 -21 -21 -21 -22 -22 -23 -23 -24 -24 -25 -27 -28 -30 -30 -30 -30 -30 -31 -30 -30 -30 -30 -29
-16 -16 -16 -16 -16 -17 -17 -17 -17 -18 -18 -18 -19 -20 -20 -20 -20 -21 -21 -21 -21 -22 -22 -22 -22 -23 -24 -25 -26 -28 -30 -30 -30 -30 -31 -31 -31 -31 -31 -31 -31 -31 -30
-16 -16 -16 -17 -17 -17 -17 -17 -18 -18 -18 -19 -19 -20 -20 -20 -20 -21 -21 -22 -22 -22 -23 -24 -24 -25 -26 -27 -29 -30 -30 -30 -30 -31 -32 -32 -32 -32 -32 -32 -32 -31 -31
-16 -16 -16 -16 -17 -17 -17 -18 -18 -18 -19 -20 -20 -20 -20 -20 -21 -21 -22 -22 -22 -23 -23 -24 -25 -26 -28 -30 -30 -31 -31 -31 -31 -32 -32 -32 -32 -32 -32 -32 -32 -32 -32
-16 -16 -17 -16 -17 -17 -17 -18 -19 -19 -20 -20 -20 -20 -20 -21 -21 -21 -22 -23 -23 -24 -24 -25 -27 -28 -29 -30 -31 -31 -31 -31 -31 -32 -32 -32 -33 -33 -33 -33 -33 -33 -32
-16 -16 -17 -17 -17 -18 -18 -19 -19 -20 -21 -21 -21 -21 -21 -21 -21 -22 -22 -23 -24 -25 -26 -27 -29 -30 -30 -31 -31 -31 -31 -31 -32 -32 -32 -33 -33 -33 -33 -33 -33 -32 -32
-16 -16 -17 -17 -18 -18 -19 -20 -20 -21 -21 -21 -21 -21 -21 -22 -22 -23 -23 -24 -25 -26 -27 -28 -30 -30 -31 -31 -31 -31 -31 -31 -32 -32 -32 -33 -33 -33 -33 -33 -33 -33 -32
-17 -17 -17 -18 -18 -19 -20 -20 -20 -21 -21 -21 -21 -22 -22 -22 -23 -24 -24 -25 -26 -27 -28 -30 -31 -31 -31 -31 -31 -31 -32 -32 -33 -33 -33 -34 -33 -33 -33 -33 -33 -33 -32
-17 -17 -17 -18 -19 -19 -20 -21 -21 -21 -21 -21 -22 -22 -22 -23 -23 -24 -25 -26 -27 -28 -30 -31 -31 -31 -32 -32 -32 -32 -32 -33 -33 -33 -34 -34 -33 -33 -33 -33 -33 -33 -33
-17 -17 -18 -18 -19 -20 -20 -20 -21 -21 -22 -22 -22 -22 -23 -23 -24 -25 -26 -27 -28 -30 -31 -31 -32 -32 -32 -32 -32 -32 -32 -33 -34 -34 -34 -35 -34 -33 -33 -33 -33 -33 -33
-17 -17 -18 -19 -19 -21 -21 -21 -22 -22 -22 -22 -22 -23 -23 -24 -25 -26 -27 -28 -30 -31 -32 -32 -32 -32 -32 -32 -32 -33 -33 -34 -34 -34 -34 -35 -34 -34 -33 -33 -34 -34 -33
-18 -18 -19 -19 -20 -21 -21 -22 -22 -22 -22 -22 -23 -23 -24 -25 -26 -27 -29 -29 -31 -32 -32 -32 -32 -32 -32 -33 -33 -33 -34 -34 -35 -35 -35 -35 -34 -34 -34 -33 -34 -34 -34
-18 -19 -19 -20 -21 -21 -22 -22 -22 -22 -22 -23 -23 -24 -25 -26 -27 -28 -30 -31 -32 -32 -32 -32 -32 -32 -33 -33 -33 -34 -34 -34 -35 -35 -35 -35 -35 -35 -34 -34 -34 -34 -34
-19 -19 -20 -21 -21 -22 -22 -22 -22 -22 -23 -23 -24 -25 -26 -27 -29 -30 -32 -32 -32 -32 -32 -32 -33 -33 -33 -33 -34 -34 -35 -35 -35 -35 -35 -35 -35 -35 -35 -34 -34 -34 -33
Height
5805 5806 5807 5809 5810 5811 5813 5813 5812 5811 5809 5808 5805 5802 5800 5797 5794 5790 5787 5783 5779 5775 5772 5769 5767 5763 5760 5757 5754 5752 5749 5748 5746 5744 5743 5742 5741 5741 5740 5741 5740 5739 5739
5803 5804 5805 5807 5807 5809 5810 5809 5807 5806 5805 5803 5801 5797 5794 5791 5785 5780 5777 5773 5770 5767 5763 5760 5757 5754 5751 5749 5746 5744 5742 5740 5738 5736 5734 5732 5731 5730 5729 5729 5729 5728 5728
5800 5803 5804 5805 5805 5806 5807 5805 5803 5802 5799 5797 5795 5791 5787 5782 5777 5773 5769 5765 5762 5758 5754 5751 5747 5744 5742 5739 5737 5735 5733 5731 5729 5727 5725 5723 5721 5719 5718 5716 5716 5716 5715
5798 5800 5802 5802 5804 5804 5804 5800 5799 5795 5793 5791 5787 5783 5779 5775 5770 5767 5762 5758 5754 5750 5747 5742 5739 5735 5733 5730 5727 5725 5722 5720 5718 5716 5713 5711 5709 5707 5706 5704 5703 5701 5700
5797 5798 5800 5800 5801 5800 5798 5796 5793 5789 5788 5784 5779 5776 5771 5767 5764 5760 5754 5750 5746 5741 5736 5734 5729 5727 5724 5720 5717 5713 5710 5707 5705 5701 5698 5695 5692 5690 5688 5687 5687 5686 5685
5795 5796 5797 5796 5795 5795 5792 5789 5788 5784 5779 5775 5770 5766 5762 5758 5754 5748 5744 5739 5735 5730 5726 5721 5717 5714 5711 5706 5702 5698 5694 5690 5686 5681 5678 5675 5672 5669 5666 5665 5664 5664 5665
5792 5792 5793 5790 5790 5787 5785 5783 5779 5775 5771 5765 5759 5756 5754 5749 5743 5737 5732 5726 5722 5718 5713 5709 5705 5700 5695 5692 5687 5681 5676 5671 5665 5660 5655 5651 5647 5644 5640 5638 5637 5637 5638
5787 5789 5787 5785 5782 5779 5778 5774 5771 5767 5762 5755 5750 5745 5739 5732 5734 5728 5721 5716 5710 5705 5701 5697 5692 5686 5679 5672 5668 5663 5657 5651 5644 5638 5632 5626 5620 5615 5611 5608 5606 5606 5607
5784 5783 5781 5777 5774 5771 5768 5765 5763 5758 5752 5746 5742 5736 5729 5724 5717 5712 5710 5703 5698 5692 5687 5681 5676 5669 5662 5654 5648 5641 5637 5628 5621 5612 5604 5596 5589 5582 5577 5574 5573 5573 5574
5777 5775 5772 5768 5765 5761 5758 5756 5752 5747 5741 5736 5732 5726 5721 5714 5707 5699 5694 5692 5685 5678 5671 5664 5657 5651 5644 5635 5627 5620 5611 5602 5592 5581 5571 5562 5554 5548 5544 5541 5540 5540 5541
5768 5766 5762 5759 5756 5753 5749 5746 5741 5735 5730 5725 5720 5715 5710 5703 5696 5688 5680 5672 5667 5663 5656 5648 5640 5630 5622 5615 5604 5593 5585 5574 5562 5551 5542 5534 5527 5520 5517 5515 5514 5513 5513
5762 5759 5756 5751 5748 5744 5741 5736 5732 5726 5720 5715 5709 5703 5697 5690 5683 5677 5669 5661 5654 5645 5637 5628 5620 5611 5602 5592 5581 5571 5557 5548 5536 5525 5517 5510 5502 5497 5492 5489 5487 5487 5486
5754 5751 5748 5743 5739 5737 5733 5729 5723 5717 5711 5704 5698 5691 5684 5677 5670 5662 5655 5646 5637 5628 5619 5612 5600 5590 5579 5569 5558 5549 5536 5526 5516 5505 5496 5487 5480 5475 5470 5466 5464 5462 5462
5746 5744 5741 5735 5732 5729 5725 5719 5713 5707 5701 5695 5686 5678 5670 5663 5656 5647 5639 5631 5622 5612 5599 5589 5581 5572 5561 5550 5539 5528 5516 5508 5500 5488 5477 5469 5463 5457 5452 5449 5446 5443 5441
5738 5735 5732 5727 5722 5717 5714 5709 5701 5697 5689 5680 5672 5664 5656 5648 5641 5633 5625 5616 5607 5598 5586 5570 5561 5549 5541 5530 5521 5512 5502 5493 5483 5472 5462 5455 5448 5441 5436 5432 5430 5427 5425
5729 5726 5722 5717 5712 5706 5703 5697 5692 5685 5675 5666 5657 5649 5642 5635 5627 5619 5610 5601 5591 5580 5572 5555 5543 5532 5522 5513 5505 5497 5488 5478 5467 5458 5449 5442 5434 5428 5423 5418 5414 5412 5410
5720 5717 5713 5709 5704 5699 5694 5687 5678 5668 5661 5651 5644 5636 5628 5621 5612 5604 5594 5584 5573 5562 5553 5542 5527 5517 5511 5502 5493 5483 5473 5464 5453 5444 5437 5430 5423 5416 5410 5406 5402 5400 5398
5710 5707 5702 5698 5694 5688 5681 5673 5663 5655 5647 5637 5631 5623 5615 5606 5598 5587 5576 5567 5556 5545 5534 5526 5514 5504 5496 5488 5480 5471 5461 5451 5441 5433 5425 5418 5411 5404 5399 5395 5392 5389 5388
5700 5696 5690 5685 5680 5673 5664 5656 5650 5643 5632 5626 5618 5610 5601 5591 5582 5570 5560 5549 5538 5528 5518 5509 5502 5491 5484 5475 5468 5459 5450 5439 5430 5423 5415 5407 5400 5394 5388 5384 5382 5379 5377
5688 5683 5677 5671 5666 5660 5651 5643 5635 5626 5619 5612 5603 5595 5585 5575 5564 5553 5543 5533 5522 5510 5500 5493 5487 5479 5471 5463 5455 5447 5439 5428 5420 5412 5404 5397 5391 5384 5378 5374 5372 5370 5368
5675 5670 5664 5659 5652 5644 5638 5630 5619 5613 5605 5597 5588 5578 5569 5559 5548 5537 5526 5515 5504 5495 5486 5480 5474 5466 5459 5451 5443 5435 5427 5419 5410 5402 5395 5387 5380 5374 5369 5366 5363 5361 5360
5664 5658 5652 5646 5639 5633 5624 5616 5608 5600 5592 5583 5574 5564 5553 5543 5532 5520 5510 5500 5489 5480 5473 5467 5461 5453 5447 5440 5432 5425 5417 5409 5403 5393 5387 5380 5371 5365 5361 5357 5354 5352 5351
5651 5644 5638 5631 5623 5616 5609 5601 5593 5585 5578 5568 5557 5547 5536 5525 5515 5503 5494 5483 5476 5468 5461 5453 5448 5441 5436 5428 5421 5414 5407 5400 5393 5385 5379 5373 5365 5358 5352 5349 5347 5345 5343
5636 5629 5622 5615 5608 5600 5593 5585 5577 5569 5561 5551 5540 5529 5519 5508 5496 5485 5472 5467 5461 5454 5449 5441 5436 5429 5423 5417 5410 5404 5397 5390 5384 5377 5370 5365 5358 5353 5345 5341 5340 5339 5336
5621 5614 5607 5599 5592 5585 5576 5568 5560 5554 5545 5534 5523 5512 5500 5488 5477 5468 5457 5452 5445 5440 5434 5430 5424 5418 5412 5406 5399 5393 5387 5381 5376 5370 5363 5358 5350 5347 5338 5334 5332 5332 5330
5606 5599 5591 5584 5577 5571 5562 5553 5542 5534 5527 5516 5507 5494 5482 5470 5455 5450 5441 5437 5433 5425 5417 5416 5410 5404 5399 5394 5388 5383 5377 5372 5367 5363 5356 5351 5345 5340 5335 5326 5325 5324 5323
Wind_Speed
16 15 14 13 12 9 10 12 16 19 24 28 31 33 36 37 38 39 38 39 39 36 34 35 35 36 36 37 39 41 41 41 41 42 43 43 41 38 37 38 41 45 47
12 11 12 13 10 10 12 15 19 23 27 31 34 37 39 40 40 41 42 40 37 38 40 40 40 39 39 39 39 38 39 40 41 42 43 45 47 48 47 44 42 43 45
12 13 12 11 10 12 16 19 23 27 29 34 37 39 39 41 43 44 43 40 40 41 41 43 43 42 40 39 39 40 40 42 44 47 49 50 50 52 55 56 53 51 51
12 13 12 10 13 17 22 24 28 30 33 37 40 42 41 44 44 42 42 41 41 42 43 43 43 43 42 41 42 43 45 47 49 51 54 56 57 58 59 60 62 62 60
15 14 13 14 18 22 27 30 33 35 40 43 45 44 43 43 42 43 42 42 44 45 46 44 44 43 44 46 48 50 52 54 56 58 60 62 64 65 66 65 67 68 69
15 14 15 18 22 27 31 33 36 39 41 45 47 47 43 43 45 47 47 48 48 48 48 47 48 48 50 53 55 57 60 62 65 67 68 69 71 72 73 75 75 76 76
14 16 21 23 27 31 33 36 37 40 44 47 49 48 43 45 52 54 52 52 52 52 50 50 52 56 59 60 61 63 66 68 70 72 74 76 76 77 78 81 82 83 85
17 23 27 30 32 32 34 34 39 42 47 45 49 51 54 57 55 57 56 56 55 54 53 55 60 62 64 67 68 70 71 71 73 74 76 78 80 81 82 82 83 84 87
22 26 29 33 33 34 36 36 40 43 47 48 49 53 52 59 63 62 60 58 56 57 57 60 63 66 69 72 74 76 77 77 79 80 81 82 84 84 84 82 83 87 90
25 28 31 32 34 36 40 39 44 48 52 52 50 54 58 60 65 65 61 57 59 62 64 68 72 74 75 78 80 82 83 86 87 87 85 79 76 75 76 81 85 89 91
28 31 33 33 34 38 41 46 48 55 60 53 50 64 64 64 63 60 59 64 64 66 69 73 76 80 81 83 86 89 89 91 89 83 75 70 72 78 83 83 83 83 81
30 31 33 36 37 42 43 49 56 56 54 49 60 68 66 64 63 59 62 62 67 71 75 78 81 83 86 87 89 90 91 88 79 73 69 68 68 67 67 68 72 81 88
31 33 34 40 36 40 44 51 58 49 53 55 70 69 64 64 63 65 68 68 74 80 82 82 83 85 88 88 89 89 82 73 68 69 70 68 62 59 58 58 58 61 64
33 34 38 38 42 46 48 50 56 44 51 72 67 64 62 64 66 68 69 71 80 86 87 86 88 88 88 88 85 76 66 64 67 69 65 58 55 54 53 52 52 53 55
32 36 38 39 43 49 45 49 42 61 69 70 66 64 62 65 66 69 72 75 85 88 84 87 87 88 86 81 73 63 61 63 67 63 55 53 51 50 48 47 46 46 47
36 41 41 46 45 39 46 48 65 69 69 64 63 66 67 67 68 73 78 82 86 85 85 86 86 83 74 68 66 62 61 64 64 55 52 49 46 45 44 44 43 42 41
40 43 42 39 42 52 60 67 66 67 63 63 62 64 68 71 72 80 82 83 84 84 84 83 80 72 66 63 62 62 62 63 60 53 49 46 43 41 40 40 40 39 38
43 45 48 51 54 59 59 61 63 61 57 58 62 67 77 77 79 85 84 84 84 85 84 81 68 64 63 62 60 59 60 61 56 51 49 45 42 40 37 36 35 36 36
45 47 48 52 54 55 58 62 60 57 60 63 67 69 75 78 84 85 85 84 85 85 83 74 62 61 59 60 57 57 58 59 54 50 47 44 42 40 36 34 32 32 32
45 48 51 54 54 56 58 60 60 60 62 67 69 73 77 81 83 84 84 84 84 82 76 63 59 57 57 57 56 56 56 57 52 50 47 43 41 38 33 31 28 27 28
49 52 55 56 57 53 59 53 60 64 67 70 74 76 79 81 82 83 84 84 84 77 65 60 56 54 56 56 55 55 55 54 51 49 45 41 41 37 31 26 24 24 24
53 55 58 57 57 56 53 52 64 66 67 71 75 78 80 81 82 84 84 83 78 68 60 57 54 55 55 55 53 54 54 51 47 48 44 40 41 38 31 26 23 22 20
55 56 57 58 58 55 57 61 65 67 70 73 77 80 81 82 83 84 83 80 69 61 57 57 55 54 55 54 53 54 52 49 46 45 42 39 38 37 32 27 22 21 21
56 57 59 59 59 59 61 64 67 69 72 76 79 81 82 83 84 83 79 73 61 57 54 56 54 54 54 53 54 53 50 46 44 42 41 38 37 33 31 28 22 20 23
58 59 61 61 60 61 64 66 68 72 76 78 81 82 83 84 82 80 72 63 57 55 55 55 54 54 53 54 54 52 48 44 41 39 38 37 38 31 31 29 24 19 21
60 61 62 61 61 62 64 70 74 77 78 81 82 83 84 83 81 73 64 59 55 57 59 55 55 55 55 55 53 50 45 41 40 37 37 35 35 31 23 30 26 21 20
Wind_Direction
188 204 217 233 217 218 250 275 293 304 307 305 307 305 303 302 302 302 301 300 298 296 295 294 291 291 290 289 290 290 289 289 289 289 289 286 282 276 272 267 264 259 256
208 226 215 205 216 247 275 293 301 304 302 302 300 303 306 307 309 308 306 305 304 303 302 299 296 295 293 292 290 288 288 287 287 285 285 284 283 281 277 271 263 259 259
217 205 207 221 251 277 287 292 296 294 299 306 308 306 309 310 310 308 307 304 301 301 300 298 296 294 292 292 292 291 288 285 283 283 282 280 278 277 277 276 271 265 259
212 211 227 253 274 281 285 290 293 298 300 304 312 311 309 314 309 309 305 303 301 298 296 294 293 292 292 291 290 288 286 285 284 282 281 280 278 276 273 272 272 271 267
216 225 249 268 277 283 290 295 295 299 302 305 308 309 309 312 309 310 307 301 300 300 297 293 292 291 290 290 290 290 287 285 283 280 278 275 274 272 269 267 266 265 265
224 243 263 277 282 286 291 297 302 305 308 310 309 311 315 314 312 309 305 303 303 302 300 298 296 294 295 295 294 294 294 291 289 286 283 280 277 275 272 269 265 260 259
247 264 269 277 282 288 292 293 299 307 312 313 313 311 305 311 317 313 309 306 304 302 300 299 299 301 300 298 298 297 296 294 291 290 288 285 282 278 275 271 268 265 261
264 271 273 277 283 290 296 298 305 311 315 311 315 316 311 311 311 311 308 306 304 302 301 304 306 304 304 301 299 298 299 297 295 293 290 288 285 281 276 272 268 264 262
264 273 276 282 289 295 298 302 310 314 318 315 310 317 312 308 309 309 309 306 305 304 306 307 309 308 305 303 302 303 302 300 298 296 293 287 283 278 273 268 264 260 258
276 287 290 289 294 297 298 297 303 308 311 315 310 317 313 308 309 310 308 307 307 305 304 307 308 308 308 307 306 303 304 303 303 301 297 292 285 276 269 261 261 259 258
289 296 298 297 296 296 297 298 304 316 311 306 299 313 312 309 309 308 308 310 311 309 308 308 308 309 309 307 308 308 308 308 305 301 295 288 280 275 270 267 263 263 262
287 292 298 296 295 298 297 300 308 308 306 302 301 310 310 308 307 306 306 309 314 312 310 310 309 309 310 310 311 313 310 308 305 301 298 294 290 285 281 277 271 266 264
286 291 295 294 292 296 293 298 304 299 292 288 304 306 306 307 307 305 305 306 312 314 312 310 310 311 313 314 313 312 310 307 304 303 302 298 293 289 284 280 275 270 265
287 289 295 285 295 292 294 301 301 285 293 301 304 304 307 307 307 309 309 309 311 311 311 311 311 313 314 313 313 314 309 307 307 306 302 298 293 290 286 282 278 273 269
288 293 294 291 292 294 290 303 281 294 297 301 302 304 305 310 309 311 309 306 308 309 311 313 314 314 314 314 314 312 309 310 312 308 303 299 295 291 288 285 281 275 269
290 295 297 302 285 277 284 291 292 294 300 301 303 305 304 307 311 311 308 307 308 309 312 313 313 314 314 313 314 310 312 315 315 309 305 302 299 295 290 287 284 278 271
289 293 291 288 283 283 285 292 295 297 300 303 303 304 305 306 306 309 308 308 309 311 313 314 313 311 311 311 312 310 314 319 317 311 308 305 301 297 289 286 284 279 274
293 290 285 285 285 290 293 294 296 299 303 302 303 296 303 302 303 307 308 309 311 313 313 312 309 305 310 311 311 311 315 320 316 312 310 308 306 301 291 285 282 278 274
292 291 289 292 294 298 297 295 295 297 294 298 301 303 304 302 305 307 308 311 312 312 311 311 306 305 307 310 311 312 317 319 316 313 312 311 308 306 295 289 282 276 270
295 296 297 298 298 296 293 295 297 296 293 300 302 303 303 304 305 307 310 311 311 311 311 308 307 306 308 310 312 314 318 319 315 314 314 314 309 307 297 290 283 275 268
301 301 300 298 299 292 297 296 295 296 299 301 304 304 303 305 307 308 310 310 309 310 309 307 306 305 308 310 311 314 318 317 314 313 315 317 313 311 301 292 282 273 268
301 299 299 299 298 288 289 282 290 298 297 301 302 303 304 307 308 308 309 308 308 309 306 306 305 306 308 309 310 314 316 316 313 312 315 319 314 313 308 298 292 281 272
300 300 300 298 298 294 293 293 295 298 300 302 303 305 306 308 308 307 306 306 307 306 305 304 305 305 307 308 310 313 314 313 311 312 316 317 312 313 308 300 295 288 286
301 300 300 299 298 297 296 296 298 301 303 303 305 306 307 308 306 305 305 306 306 304 303 302 303 302 305 307 309 311 311 310 308 311 314 317 313 314 307 300 297 286 287
302 302 301 299 298 298 299 301 302 304 305 305 306 308 308 306 304 304 304 304 304 303 300 299 300 300 303 305 307 309 307 307 306 310 313 317 313 317 306 298 297 285 278
303 303 302 300 299 298 301 303 305 307 307 308 309 307 306 305 304 303 302 301 301 301 297 298 298 300 301 304 305 305 304 303 303 308 310 315 312 313 305 297 297 294 287